www.cux-wetter.de
Wetterdaten: Montag, 03.10.2011
Datum Zeit Temp. A. Feuchte A. Luftdruck Regen Wind Richtung Richtung Sonnenschein Solar Taupunkt Windchill Windben
03.10.2011 00:01 16,1 C 84 % 1019,5 hPa 0,0 l/m 7,8 km/h (2 Bft) W-SW 240 0 min 0 W/m 13,4 C 15,4 C 7,8 km/h (2 Bft)
03.10.2011 00:06 16,1 C 84 % 1019,5 hPa 0,0 l/m 7,6 km/h (2 Bft) SW 225 0 min 0 W/m 13,4 C 15,5 C 7,6 km/h (2 Bft)
03.10.2011 00:11 16,1 C 84 % 1019,5 hPa 0,0 l/m 7,9 km/h (2 Bft) W-SW 240 0 min 0 W/m 13,4 C 15,3 C 7,9 km/h (2 Bft)
03.10.2011 00:16 16,1 C 84 % 1019,5 hPa 0,0 l/m 8,6 km/h (2 Bft) W-SW 240 0 min 0 W/m 13,4 C 15,0 C 8,6 km/h (2 Bft)
03.10.2011 00:21 16,1 C 84 % 1019,5 hPa 0,0 l/m 10,1 km/h (2 Bft) W-SW 255 0 min 0 W/m 13,4 C 14,3 C 10,1 km/h (2 Bft)
03.10.2011 00:26 16,2 C 85 % 1019,5 hPa 0,0 l/m 10,0 km/h (2 Bft) W-SW 250 0 min 0 W/m 13,7 C 14,4 C 10,0 km/h (2 Bft)
03.10.2011 00:31 16,2 C 85 % 1019,5 hPa 0,0 l/m 12,9 km/h (3 Bft) W 265 0 min 0 W/m 13,7 C 13,3 C 12,9 km/h (3 Bft)
03.10.2011 00:37 16,3 C 85 % 1019,5 hPa 0,0 l/m 11,5 km/h (2 Bft) W 270 0 min 0 W/m 13,8 C 14,0 C 11,5 km/h (2 Bft)
03.10.2011 00:42 16,4 C 84 % 1019,5 hPa 0,0 l/m 13,8 km/h (3 Bft) W-SW 250 0 min 0 W/m 13,7 C 13,3 C 13,8 km/h (3 Bft)
03.10.2011 00:47 16,4 C 84 % 1019,5 hPa 0,0 l/m 12,3 km/h (2 Bft) W 270 0 min 0 W/m 13,7 C 13,8 C 12,3 km/h (2 Bft)
03.10.2011 00:52 16,4 C 84 % 1018,5 hPa 0,0 l/m 12,1 km/h (2 Bft) W-SW 250 0 min 0 W/m 13,7 C 13,8 C 12,1 km/h (2 Bft)
03.10.2011 00:57 16,4 C 84 % 1018,5 hPa 0,0 l/m 11,8 km/h (2 Bft) W 260 0 min 0 W/m 13,7 C 14,0 C 11,8 km/h (2 Bft)
03.10.2011 01:02 16,4 C 84 % 1018,5 hPa 0,0 l/m 12,6 km/h (3 Bft) W-SW 255 0 min 0 W/m 13,7 C 13,7 C 12,6 km/h (3 Bft)
03.10.2011 01:06 16,4 C 84 % 1018,5 hPa 0,0 l/m 16,0 km/h (3 Bft) W 265 0 min 0 W/m 13,7 C 12,6 C 16,0 km/h (3 Bft)
03.10.2011 01:11 16,4 C 84 % 1018,5 hPa 0,0 l/m 11,0 km/h (2 Bft) W 260 0 min 0 W/m 13,7 C 14,3 C 11,0 km/h (2 Bft)
03.10.2011 01:17 16,4 C 84 % 1018,5 hPa 0,0 l/m 13,8 km/h (3 Bft) W 265 0 min 0 W/m 13,7 C 13,3 C 13,8 km/h (3 Bft)
03.10.2011 01:22 16,4 C 84 % 1018,5 hPa 0,0 l/m 15,2 km/h (3 Bft) W 260 0 min 0 W/m 13,7 C 12,8 C 15,2 km/h (3 Bft)
03.10.2011 01:27 16,5 C 84 % 1018,5 hPa 0,0 l/m 14,6 km/h (3 Bft) W 265 0 min 0 W/m 13,8 C 13,1 C 14,6 km/h (3 Bft)
03.10.2011 01:32 16,5 C 84 % 1018,5 hPa 0,0 l/m 13,6 km/h (3 Bft) W 260 0 min 0 W/m 13,8 C 13,4 C 13,6 km/h (3 Bft)
03.10.2011 01:37 16,5 C 84 % 1018,5 hPa 0,0 l/m 14,8 km/h (3 Bft) W 260 0 min 0 W/m 13,8 C 13,1 C 14,8 km/h (3 Bft)
03.10.2011 01:42 16,5 C 84 % 1018,5 hPa 0,0 l/m 14,7 km/h (3 Bft) W 265 0 min 0 W/m 13,8 C 13,1 C 14,7 km/h (3 Bft)
03.10.2011 01:47 16,4 C 84 % 1018,5 hPa 0,0 l/m 14,3 km/h (3 Bft) W 270 0 min 0 W/m 13,7 C 13,1 C 14,3 km/h (3 Bft)
03.10.2011 01:52 16,4 C 83 % 1018,5 hPa 0,0 l/m 13,0 km/h (3 Bft) W 260 0 min 0 W/m 13,5 C 13,5 C 13,0 km/h (3 Bft)
03.10.2011 01:57 16,4 C 83 % 1018,5 hPa 0,0 l/m 14,3 km/h (3 Bft) W 270 0 min 0 W/m 13,5 C 13,1 C 14,3 km/h (3 Bft)
03.10.2011 02:02 16,4 C 84 % 1018,5 hPa 0,0 l/m 16,0 km/h (3 Bft) W 270 0 min 0 W/m 13,7 C 12,6 C 16,0 km/h (3 Bft)
03.10.2011 02:07 16,4 C 84 % 1018,5 hPa 0,0 l/m 17,2 km/h (3 Bft) W 265 0 min 0 W/m 13,7 C 12,3 C 17,2 km/h (3 Bft)
03.10.2011 02:12 16,4 C 84 % 1018,5 hPa 0,0 l/m 16,6 km/h (3 Bft) W 260 0 min 0 W/m 13,7 C 12,4 C 16,6 km/h (3 Bft)
03.10.2011 02:17 16,4 C 84 % 1018,5 hPa 0,0 l/m 16,2 km/h (3 Bft) W 275 0 min 0 W/m 13,7 C 12,5 C 16,2 km/h (3 Bft)
03.10.2011 02:22 16,4 C 84 % 1018,5 hPa 0,0 l/m 17,6 km/h (3 Bft) W 265 0 min 0 W/m 13,7 C 12,2 C 17,6 km/h (3 Bft)
03.10.2011 02:27 16,4 C 84 % 1018,5 hPa 0,0 l/m 12,9 km/h (3 Bft) W 260 0 min 0 W/m 13,7 C 13,6 C 12,9 km/h (3 Bft)
03.10.2011 02:32 16,4 C 84 % 1018,5 hPa 0,0 l/m 13,6 km/h (3 Bft) W 265 0 min 0 W/m 13,7 C 13,3 C 13,6 km/h (3 Bft)
03.10.2011 02:37 16,4 C 84 % 1018,5 hPa 0,0 l/m 13,8 km/h (3 Bft) W-SW 250 0 min 0 W/m 13,7 C 13,3 C 13,8 km/h (3 Bft)
03.10.2011 02:42 16,4 C 84 % 1018,5 hPa 0,0 l/m 16,0 km/h (3 Bft) W 265 0 min 0 W/m 13,7 C 12,6 C 16,0 km/h (3 Bft)
03.10.2011 02:46 16,4 C 84 % 1017,5 hPa 0,0 l/m 20,0 km/h (4 Bft) W 260 0 min 0 W/m 13,7 C 11,6 C 20,0 km/h (4 Bft)
03.10.2011 02:51 16,4 C 84 % 1017,5 hPa 0,0 l/m 15,1 km/h (3 Bft) W 270 0 min 0 W/m 13,7 C 12,9 C 15,1 km/h (3 Bft)
03.10.2011 02:56 16,4 C 84 % 1017,5 hPa 0,0 l/m 16,1 km/h (3 Bft) W 270 0 min 0 W/m 13,7 C 12,6 C 16,1 km/h (3 Bft)
03.10.2011 03:01 16,3 C 85 % 1017,5 hPa 0,0 l/m 17,0 km/h (3 Bft) W 260 0 min 0 W/m 13,8 C 12,2 C 17,0 km/h (3 Bft)
03.10.2011 03:07 16,2 C 85 % 1017,5 hPa 0,0 l/m 17,2 km/h (3 Bft) W 270 0 min 0 W/m 13,7 C 12,0 C 17,2 km/h (3 Bft)
03.10.2011 03:12 16,2 C 85 % 1017,5 hPa 0,0 l/m 17,6 km/h (3 Bft) W 265 0 min 0 W/m 13,7 C 11,9 C 17,6 km/h (3 Bft)
03.10.2011 03:17 16,1 C 85 % 1017,5 hPa 0,0 l/m 16,6 km/h (3 Bft) W 275 0 min 0 W/m 13,6 C 12,1 C 16,6 km/h (3 Bft)
03.10.2011 03:22 16,2 C 86 % 1017,5 hPa 0,0 l/m 15,0 km/h (3 Bft) W 260 0 min 0 W/m 13,9 C 12,6 C 15,0 km/h (3 Bft)
03.10.2011 03:26 16,1 C 85 % 1017,5 hPa 0,0 l/m 17,5 km/h (3 Bft) W 270 0 min 0 W/m 13,6 C 11,8 C 17,5 km/h (3 Bft)
03.10.2011 03:31 16,0 C 85 % 1017,5 hPa 0,0 l/m 16,8 km/h (3 Bft) W 260 0 min 0 W/m 13,5 C 11,9 C 16,8 km/h (3 Bft)
03.10.2011 03:36 16,1 C 85 % 1017,5 hPa 0,0 l/m 15,8 km/h (3 Bft) W-SW 255 0 min 0 W/m 13,6 C 12,3 C 15,8 km/h (3 Bft)
03.10.2011 03:41 16,1 C 85 % 1017,5 hPa 0,0 l/m 17,6 km/h (3 Bft) W 260 0 min 0 W/m 13,6 C 11,8 C 17,6 km/h (3 Bft)
03.10.2011 03:47 16,0 C 85 % 1017,5 hPa 0,0 l/m 14,8 km/h (3 Bft) W 270 0 min 0 W/m 13,5 C 12,5 C 14,8 km/h (3 Bft)
03.10.2011 03:52 16,0 C 85 % 1017,5 hPa 0,0 l/m 16,3 km/h (3 Bft) W 265 0 min 0 W/m 13,5 C 12,0 C 16,3 km/h (3 Bft)
03.10.2011 03:57 16,0 C 86 % 1017,5 hPa 0,0 l/m 13,5 km/h (3 Bft) W 265 0 min 0 W/m 13,7 C 12,9 C 13,5 km/h (3 Bft)
03.10.2011 04:02 16,0 C 86 % 1017,5 hPa 0,0 l/m 12,2 km/h (2 Bft) W 270 0 min 0 W/m 13,7 C 13,3 C 12,2 km/h (2 Bft)
03.10.2011 04:06 16,0 C 86 % 1017,5 hPa 0,0 l/m 14,7 km/h (3 Bft) W 270 0 min 0 W/m 13,7 C 12,5 C 14,7 km/h (3 Bft)
03.10.2011 04:11 16,0 C 86 % 1017,5 hPa 0,0 l/m 13,6 km/h (3 Bft) W 260 0 min 0 W/m 13,7 C 12,9 C 13,6 km/h (3 Bft)
03.10.2011 04:16 16,0 C 86 % 1017,5 hPa 0,0 l/m 15,0 km/h (3 Bft) W 265 0 min 0 W/m 13,7 C 12,4 C 15,0 km/h (3 Bft)
03.10.2011 04:22 16,0 C 86 % 1017,5 hPa 0,0 l/m 14,1 km/h (3 Bft) W 265 0 min 0 W/m 13,7 C 12,7 C 14,1 km/h (3 Bft)
03.10.2011 04:27 16,0 C 86 % 1017,5 hPa 0,0 l/m 15,0 km/h (3 Bft) W-SW 255 0 min 0 W/m 13,7 C 12,4 C 15,0 km/h (3 Bft)
03.10.2011 04:32 16,0 C 86 % 1017,5 hPa 0,0 l/m 13,0 km/h (3 Bft) W 260 0 min 0 W/m 13,7 C 13,1 C 13,0 km/h (3 Bft)
03.10.2011 04:37 16,0 C 86 % 1017,5 hPa 0,0 l/m 12,0 km/h (2 Bft) W 265 0 min 0 W/m 13,7 C 13,4 C 12,0 km/h (2 Bft)
03.10.2011 04:42 16,0 C 86 % 1017,5 hPa 0,0 l/m 16,3 km/h (3 Bft) W 265 0 min 0 W/m 13,7 C 12,0 C 16,3 km/h (3 Bft)
03.10.2011 04:47 16,2 C 86 % 1017,5 hPa 0,0 l/m 18,6 km/h (3 Bft) W 270 0 min 0 W/m 13,9 C 11,6 C 18,6 km/h (3 Bft)
03.10.2011 04:52 16,2 C 86 % 1017,5 hPa 0,0 l/m 19,3 km/h (3 Bft) W-SW 255 0 min 0 W/m 13,9 C 11,5 C 19,3 km/h (3 Bft)
03.10.2011 04:56 16,4 C 86 % 1017,5 hPa 0,0 l/m 21,8 km/h (4 Bft) W 275 0 min 0 W/m 14,1 C 11,1 C 21,8 km/h (4 Bft)
03.10.2011 05:01 16,5 C 86 % 1017,5 hPa 0,0 l/m 20,7 km/h (4 Bft) W 270 0 min 0 W/m 14,1 C 11,5 C 20,7 km/h (4 Bft)
03.10.2011 05:07 16,7 C 85 % 1017,5 hPa 0,0 l/m 18,4 km/h (3 Bft) W 265 0 min 0 W/m 14,2 C 12,3 C 18,4 km/h (3 Bft)
03.10.2011 05:12 16,8 C 84 % 1017,5 hPa 0,0 l/m 23,6 km/h (4 Bft) W 275 0 min 0 W/m 14,1 C 11,3 C 23,6 km/h (4 Bft)
03.10.2011 05:17 16,9 C 84 % 1017,5 hPa 0,0 l/m 26,2 km/h (4 Bft) W 265 0 min 0 W/m 14,2 C 11,0 C 26,2 km/h (4 Bft)
03.10.2011 05:22 17,0 C 83 % 1016,5 hPa 0,0 l/m 19,8 km/h (3 Bft) W 270 0 min 0 W/m 14,1 C 12,4 C 19,8 km/h (3 Bft)
03.10.2011 05:27 17,0 C 83 % 1016,5 hPa 0,0 l/m 24,8 km/h (4 Bft) W 270 0 min 0 W/m 14,1 C 11,4 C 24,8 km/h (4 Bft)
03.10.2011 05:31 17,0 C 83 % 1016,5 hPa 0,0 l/m 21,4 km/h (4 Bft) W 270 0 min 0 W/m 14,1 C 12,0 C 21,4 km/h (4 Bft)
03.10.2011 05:36 17,0 C 83 % 1016,5 hPa 0,0 l/m 20,9 km/h (4 Bft) W 270 0 min 0 W/m 14,1 C 12,1 C 20,9 km/h (4 Bft)
03.10.2011 05:41 17,0 C 83 % 1016,5 hPa 0,0 l/m 23,3 km/h (4 Bft) W 265 0 min 0 W/m 14,1 C 11,6 C 23,3 km/h (4 Bft)
03.10.2011 05:46 17,0 C 83 % 1016,5 hPa 0,0 l/m 21,5 km/h (4 Bft) W 270 0 min 0 W/m 14,1 C 12,0 C 21,5 km/h (4 Bft)
03.10.2011 05:51 17,0 C 83 % 1016,5 hPa 0,0 l/m 19,8 km/h (3 Bft) W 260 0 min 0 W/m 14,1 C 12,4 C 19,8 km/h (3 Bft)
03.10.2011 05:57 17,0 C 82 % 1016,5 hPa 0,0 l/m 27,8 km/h (5 Bft) W 270 0 min 0 W/m 13,9 C 10,8 C 27,8 km/h (5 Bft)
03.10.2011 06:02 17,0 C 82 % 1016,5 hPa 0,0 l/m 20,5 km/h (4 Bft) W 270 0 min 0 W/m 13,9 C 12,2 C 20,5 km/h (4 Bft)
03.10.2011 06:07 17,1 C 82 % 1016,5 hPa 0,0 l/m 16,8 km/h (3 Bft) W 270 0 min 0 W/m 14,0 C 13,2 C 16,8 km/h (3 Bft)
03.10.2011 06:12 17,1 C 82 % 1016,5 hPa 0,0 l/m 19,1 km/h (3 Bft) W 270 0 min 0 W/m 14,0 C 12,7 C 19,1 km/h (3 Bft)
03.10.2011 06:17 17,1 C 82 % 1016,5 hPa 0,0 l/m 27,5 km/h (5 Bft) W 270 0 min 0 W/m 14,0 C 11,0 C 27,5 km/h (5 Bft)
03.10.2011 06:22 17,2 C 81 % 1016,5 hPa 0,0 l/m 20,0 km/h (4 Bft) W 275 0 min 0 W/m 13,9 C 12,6 C 20,0 km/h (4 Bft)
03.10.2011 06:27 17,2 C 81 % 1016,5 hPa 0,0 l/m 19,1 km/h (3 Bft) W 270 0 min 0 W/m 13,9 C 12,8 C 19,1 km/h (3 Bft)
03.10.2011 06:31 17,2 C 81 % 1016,5 hPa 0,0 l/m 22,6 km/h (4 Bft) W 275 0 min 0 W/m 13,9 C 12,0 C 22,6 km/h (4 Bft)
03.10.2011 06:36 17,2 C 82 % 1016,5 hPa 0,0 l/m 17,0 km/h (3 Bft) W 270 0 min 0 W/m 14,1 C 13,3 C 17,0 km/h (3 Bft)
03.10.2011 06:41 17,1 C 82 % 1016,5 hPa 0,0 l/m 22,9 km/h (4 Bft) W 265 0 min 0 W/m 14,0 C 11,8 C 22,9 km/h (4 Bft)
03.10.2011 06:46 17,0 C 82 % 1016,5 hPa 0,0 l/m 20,3 km/h (4 Bft) W 270 0 min 0 W/m 13,9 C 12,3 C 20,3 km/h (4 Bft)
03.10.2011 06:51 17,0 C 82 % 1016,5 hPa 0,0 l/m 18,6 km/h (3 Bft) W 270 0 min 0 W/m 13,9 C 12,7 C 18,6 km/h (3 Bft)
03.10.2011 06:57 17,0 C 82 % 1016,5 hPa 0,0 l/m 17,2 km/h (3 Bft) W 270 0 min 0 W/m 13,9 C 13,0 C 17,2 km/h (3 Bft)
03.10.2011 07:02 17,0 C 82 % 1016,5 hPa 0,0 l/m 16,9 km/h (3 Bft) W 270 0 min 0 W/m 13,9 C 13,1 C 16,9 km/h (3 Bft)
03.10.2011 07:06 17,0 C 82 % 1016,5 hPa 0,0 l/m 19,7 km/h (3 Bft) W 270 0 min 0 W/m 13,9 C 12,4 C 19,7 km/h (3 Bft)
03.10.2011 07:11 17,0 C 82 % 1016,5 hPa 0,0 l/m 19,3 km/h (3 Bft) W 265 0 min 0 W/m 13,9 C 12,5 C 19,3 km/h (3 Bft)
03.10.2011 07:16 17,0 C 82 % 1016,5 hPa 0,0 l/m 18,4 km/h (3 Bft) W 270 0 min 0 W/m 13,9 C 12,7 C 18,4 km/h (3 Bft)
03.10.2011 07:21 17,0 C 82 % 1016,5 hPa 0,0 l/m 17,8 km/h (3 Bft) W 270 0 min 0 W/m 13,9 C 12,9 C 17,8 km/h (3 Bft)
03.10.2011 07:27 16,9 C 82 % 1016,5 hPa 0,0 l/m 17,8 km/h (3 Bft) W 270 0 min 0 W/m 13,8 C 12,7 C 17,8 km/h (3 Bft)
03.10.2011 07:32 16,9 C 83 % 1016,5 hPa 0,0 l/m 19,3 km/h (3 Bft) W 270 0 min 0 W/m 14,0 C 12,4 C 19,3 km/h (3 Bft)
03.10.2011 07:37 16,9 C 83 % 1016,5 hPa 0,0 l/m 19,2 km/h (3 Bft) W 275 0 min 0 W/m 14,0 C 12,4 C 19,2 km/h (3 Bft)
03.10.2011 07:42 16,8 C 83 % 1016,5 hPa 0,0 l/m 23,5 km/h (4 Bft) W 270 0 min 0 W/m 13,9 C 11,3 C 23,5 km/h (4 Bft)
03.10.2011 07:47 16,9 C 83 % 1016,5 hPa 0,0 l/m 24,0 km/h (4 Bft) W 270 0 min 0 W/m 14,0 C 11,4 C 24,0 km/h (4 Bft)
03.10.2011 07:52 16,9 C 83 % 1016,5 hPa 0,0 l/m 17,5 km/h (3 Bft) W 280 0 min 0 W/m 14,0 C 12,8 C 17,5 km/h (3 Bft)
03.10.2011 07:57 16,8 C 83 % 1016,5 hPa 0,0 l/m 18,4 km/h (3 Bft) W 275 0 min 0 W/m 13,9 C 12,5 C 18,4 km/h (3 Bft)
03.10.2011 08:02 16,8 C 83 % 1016,5 hPa 0,0 l/m 16,8 km/h (3 Bft) W 270 0 min 0 W/m 13,9 C 12,9 C 16,8 km/h (3 Bft)
03.10.2011 08:07 16,8 C 83 % 1016,5 hPa 0,0 l/m 19,8 km/h (3 Bft) W 275 0 min 0 W/m 13,9 C 12,1 C 19,8 km/h (3 Bft)
03.10.2011 08:12 16,8 C 83 % 1016,5 hPa 0,0 l/m 19,0 km/h (3 Bft) W 270 0 min 0 W/m 13,9 C 12,3 C 19,0 km/h (3 Bft)
03.10.2011 08:17 16,8 C 84 % 1016,5 hPa 0,0 l/m 19,0 km/h (3 Bft) W 270 0 min 0 W/m 14,1 C 12,3 C 19,0 km/h (3 Bft)
03.10.2011 08:22 16,8 C 84 % 1016,5 hPa 0,0 l/m 19,8 km/h (3 Bft) W 275 0 min 0 W/m 14,1 C 12,1 C 19,8 km/h (3 Bft)
03.10.2011 08:27 16,8 C 84 % 1016,5 hPa 0,0 l/m 21,5 km/h (4 Bft) W 275 0 min 0 W/m 14,1 C 11,7 C 21,5 km/h (4 Bft)
03.10.2011 08:32 16,8 C 84 % 1016,5 hPa 0,0 l/m 20,6 km/h (4 Bft) W 270 0 min 0 W/m 14,1 C 11,9 C 20,6 km/h (4 Bft)
03.10.2011 08:37 16,8 C 84 % 1016,5 hPa 0,0 l/m 20,6 km/h (4 Bft) W 270 0 min 0 W/m 14,1 C 11,9 C 20,6 km/h (4 Bft)
03.10.2011 08:41 16,9 C 84 % 1016,5 hPa 0,0 l/m 20,6 km/h (4 Bft) W 270 0 min 0 W/m 14,2 C 12,1 C 20,6 km/h (4 Bft)
03.10.2011 08:46 16,9 C 84 % 1016,5 hPa 0,0 l/m 20,6 km/h (4 Bft) W 270 0 min 0 W/m 14,2 C 12,1 C 20,6 km/h (4 Bft)
03.10.2011 08:51 16,8 C 83 % 1016,5 hPa 0,0 l/m 19,5 km/h (3 Bft) W 270 0 min 0 W/m 13,9 C 12,2 C 19,5 km/h (3 Bft)
03.10.2011 08:56 16,9 C 83 % 1016,5 hPa 0,0 l/m 19,5 km/h (3 Bft) W 270 0 min 0 W/m 14,0 C 12,3 C 19,5 km/h (3 Bft)
03.10.2011 09:02 17,0 C 83 % 1016,5 hPa 0,0 l/m 21,8 km/h (4 Bft) W 270 0 min 0 W/m 14,1 C 11,9 C 21,8 km/h (4 Bft)
03.10.2011 09:07 16,9 C 83 % 1016,5 hPa 0,0 l/m 20,6 km/h (4 Bft) W 270 0 min 0 W/m 14,0 C 12,1 C 20,6 km/h (4 Bft)
03.10.2011 09:12 16,9 C 83 % 1016,5 hPa 0,0 l/m 19,7 km/h (3 Bft) W 270 0 min 0 W/m 14,0 C 12,3 C 19,7 km/h (3 Bft)
03.10.2011 09:16 17,0 C 83 % 1016,5 hPa 0,0 l/m 18,8 km/h (3 Bft) W 270 0 min 0 W/m 14,1 C 12,6 C 18,8 km/h (3 Bft)
03.10.2011 09:21 17,0 C 83 % 1016,5 hPa 0,0 l/m 21,8 km/h (4 Bft) W 275 0 min 0 W/m 14,1 C 11,9 C 21,8 km/h (4 Bft)
03.10.2011 09:26 17,0 C 83 % 1016,5 hPa 0,0 l/m 21,8 km/h (4 Bft) W 275 0 min 0 W/m 14,1 C 11,9 C 21,8 km/h (4 Bft)
03.10.2011 09:31 17,1 C 83 % 1016,5 hPa 0,0 l/m 21,8 km/h (4 Bft) W 275 0 min 0 W/m 14,2 C 12,1 C 21,8 km/h (4 Bft)
03.10.2011 09:37 17,1 C 83 % 1016,5 hPa 0,0 l/m 21,8 km/h (4 Bft) W 275 0 min 0 W/m 14,2 C 12,1 C 21,8 km/h (4 Bft)
03.10.2011 09:42 17,2 C 83 % 1016,5 hPa 0,0 l/m 21,8 km/h (4 Bft) W 275 0 min 0 W/m 14,3 C 12,2 C 21,8 km/h (4 Bft)
03.10.2011 09:47 17,2 C 82 % 1016,5 hPa 0,0 l/m 21,0 km/h (4 Bft) W 265 0 min 0 W/m 14,1 C 12,4 C 21,0 km/h (4 Bft)
03.10.2011 09:52 17,1 C 82 % 1016,5 hPa 0,0 l/m 21,4 km/h (4 Bft) W 270 0 min 0 W/m 14,0 C 12,2 C 21,4 km/h (4 Bft)
03.10.2011 09:57 17,2 C 82 % 1016,5 hPa 0,0 l/m 21,4 km/h (4 Bft) W 270 0 min 0 W/m 14,1 C 12,3 C 21,4 km/h (4 Bft)
03.10.2011 10:02 17,2 C 82 % 1016,5 hPa 0,0 l/m 21,4 km/h (4 Bft) W 270 0 min 0 W/m 14,1 C 12,3 C 21,4 km/h (4 Bft)
03.10.2011 10:06 17,4 C 82 % 1016,5 hPa 0,0 l/m 20,9 km/h (4 Bft) W 270 0 min 0 W/m 14,3 C 12,7 C 20,9 km/h (4 Bft)
03.10.2011 10:12 17,5 C 82 % 1016,5 hPa 0,0 l/m 20,9 km/h (4 Bft) W 270 0 min 0 W/m 14,4 C 12,8 C 20,9 km/h (4 Bft)
03.10.2011 10:16 17,8 C 80 % 1016,5 hPa 0,0 l/m 22,1 km/h (4 Bft) W 270 0 min 0 W/m 14,3 C 12,9 C 22,1 km/h (4 Bft)
03.10.2011 10:21 17,9 C 80 % 1016,5 hPa 0,0 l/m 22,1 km/h (4 Bft) W 270 0 min 0 W/m 14,4 C 13,1 C 22,1 km/h (4 Bft)
03.10.2011 10:26 18,0 C 80 % 1016,5 hPa 0,0 l/m 22,1 km/h (4 Bft) W 270 0 min 0 W/m 14,5 C 13,2 C 22,1 km/h (4 Bft)
03.10.2011 10:31 18,0 C 79 % 1016,5 hPa 0,0 l/m 22,1 km/h (4 Bft) W 270 0 min 0 W/m 14,3 C 13,2 C 22,1 km/h (4 Bft)
03.10.2011 10:37 18,0 C 79 % 1016,5 hPa 0,0 l/m 22,1 km/h (4 Bft) W 270 0 min 0 W/m 14,3 C 13,2 C 22,1 km/h (4 Bft)
03.10.2011 10:42 18,0 C 79 % 1016,5 hPa 0,0 l/m 20,0 km/h (4 Bft) W 265 0 min 0 W/m 14,3 C 13,6 C 20,0 km/h (4 Bft)
03.10.2011 10:47 18,1 C 79 % 1016,5 hPa 0,0 l/m 24,1 km/h (4 Bft) W 270 0 min 0 W/m 14,4 C 13,0 C 24,1 km/h (4 Bft)
03.10.2011 10:52 18,1 C 79 % 1016,5 hPa 0,0 l/m 16,6 km/h (3 Bft) W 270 0 min 0 W/m 14,4 C 14,5 C 16,6 km/h (3 Bft)
03.10.2011 10:57 18,1 C 78 % 1016,5 hPa 0,0 l/m 21,6 km/h (4 Bft) W 275 0 min 0 W/m 14,2 C 13,4 C 21,6 km/h (4 Bft)
03.10.2011 11:02 18,2 C 78 % 1016,5 hPa 0,0 l/m 20,6 km/h (4 Bft) W 270 0 min 0 W/m 14,3 C 13,8 C 20,6 km/h (4 Bft)
03.10.2011 11:07 18,2 C 78 % 1016,5 hPa 0,0 l/m 19,1 km/h (3 Bft) W 270 0 min 0 W/m 14,3 C 14,1 C 19,1 km/h (3 Bft)
03.10.2011 11:12 18,2 C 78 % 1016,5 hPa 0,0 l/m 20,9 km/h (4 Bft) W 270 0 min 0 W/m 14,3 C 13,7 C 20,9 km/h (4 Bft)
03.10.2011 11:17 18,2 C 78 % 1016,5 hPa 0,0 l/m 22,1 km/h (4 Bft) W 265 0 min 0 W/m 14,3 C 13,5 C 22,1 km/h (4 Bft)
03.10.2011 11:22 18,2 C 78 % 1016,5 hPa 0,0 l/m 22,1 km/h (4 Bft) W 265 0 min 0 W/m 14,3 C 13,5 C 22,1 km/h (4 Bft)
03.10.2011 11:27 18,2 C 78 % 1016,5 hPa 0,0 l/m 22,1 km/h (4 Bft) W 265 0 min 0 W/m 14,3 C 13,5 C 22,1 km/h (4 Bft)
03.10.2011 11:32 18,2 C 77 % 1016,5 hPa 0,0 l/m 24,6 km/h (4 Bft) W 275 0 min 0 W/m 14,1 C 13,0 C 24,6 km/h (4 Bft)
03.10.2011 11:37 18,3 C 77 % 1016,5 hPa 0,0 l/m 24,6 km/h (4 Bft) W 275 0 min 0 W/m 14,2 C 13,1 C 24,6 km/h (4 Bft)
03.10.2011 11:42 18,3 C 77 % 1016,5 hPa 0,0 l/m 24,5 km/h (4 Bft) W 270 0 min 0 W/m 14,2 C 13,2 C 24,5 km/h (4 Bft)
03.10.2011 11:46 18,2 C 77 % 1016,5 hPa 0,0 l/m 25,1 km/h (4 Bft) W 275 0 min 0 W/m 14,1 C 12,9 C 25,1 km/h (4 Bft)
03.10.2011 11:51 18,2 C 77 % 1016,5 hPa 0,0 l/m 25,8 km/h (4 Bft) W 270 0 min 0 W/m 14,1 C 12,8 C 25,8 km/h (4 Bft)
03.10.2011 11:56 18,2 C 78 % 1016,5 hPa 0,0 l/m 21,9 km/h (4 Bft) W 270 0 min 0 W/m 14,3 C 13,5 C 21,9 km/h (4 Bft)
03.10.2011 12:01 18,2 C 78 % 1016,5 hPa 0,0 l/m 23,2 km/h (4 Bft) W 270 0 min 0 W/m 14,3 C 13,3 C 23,2 km/h (4 Bft)
03.10.2011 12:07 18,2 C 78 % 1016,5 hPa 0,0 l/m 24,6 km/h (4 Bft) W 270 0 min 0 W/m 14,3 C 13,0 C 24,6 km/h (4 Bft)
03.10.2011 12:12 18,1 C 78 % 1016,5 hPa 0,0 l/m 26,6 km/h (4 Bft) W 270 0 min 0 W/m 14,2 C 12,5 C 26,6 km/h (4 Bft)
03.10.2011 12:17 18,2 C 78 % 1016,5 hPa 0,0 l/m 26,6 km/h (4 Bft) W 270 0 min 0 W/m 14,3 C 12,7 C 26,6 km/h (4 Bft)
03.10.2011 12:21 18,2 C 78 % 1016,5 hPa 0,0 l/m 23,7 km/h (4 Bft) W 275 0 min 0 W/m 14,3 C 13,2 C 23,7 km/h (4 Bft)
03.10.2011 12:26 18,3 C 78 % 1016,5 hPa 0,0 l/m 25,8 km/h (4 Bft) W 270 0 min 0 W/m 14,4 C 12,9 C 25,8 km/h (4 Bft)
03.10.2011 12:31 18,3 C 79 % 1016,5 hPa 0,0 l/m 26,8 km/h (4 Bft) W 265 0 min 0 W/m 14,6 C 12,8 C 26,8 km/h (4 Bft)
03.10.2011 12:36 18,2 C 80 % 1016,5 hPa 0,0 l/m 21,0 km/h (4 Bft) W 270 0 min 0 W/m 14,7 C 13,7 C 21,0 km/h (4 Bft)
03.10.2011 12:42 18,1 C 80 % 1016,5 hPa 0,0 l/m 21,6 km/h (4 Bft) W 275 0 min 0 W/m 14,6 C 13,4 C 21,6 km/h (4 Bft)
03.10.2011 12:47 18,1 C 80 % 1016,5 hPa 0,0 l/m 25,5 km/h (4 Bft) W 265 0 min 0 W/m 14,6 C 12,7 C 25,5 km/h (4 Bft)
03.10.2011 12:52 18,1 C 80 % 1016,5 hPa 0,0 l/m 23,3 km/h (4 Bft) W 275 0 min 0 W/m 14,6 C 13,1 C 23,3 km/h (4 Bft)
03.10.2011 12:57 18,4 C 80 % 1016,5 hPa 0,0 l/m 25,5 km/h (4 Bft) W 270 0 min 0 W/m 14,9 C 13,1 C 25,5 km/h (4 Bft)
03.10.2011 13:02 18,7 C 79 % 1016,5 hPa 0,0 l/m 27,1 km/h (5 Bft) W 270 0 min 0 W/m 15,0 C 13,3 C 27,1 km/h (5 Bft)
03.10.2011 13:06 18,8 C 79 % 1016,5 hPa 0,0 l/m 26,6 km/h (4 Bft) W 270 0 min 0 W/m 15,1 C 13,5 C 26,6 km/h (4 Bft)
03.10.2011 13:11 19,0 C 79 % 1016,5 hPa 0,0 l/m 23,8 km/h (4 Bft) W 265 0 min 0 W/m 15,3 C 14,2 C 23,8 km/h (4 Bft)
03.10.2011 13:17 19,2 C 78 % 1016,5 hPa 0,0 l/m 23,7 km/h (4 Bft) W 265 0 min 0 W/m 15,3 C 14,5 C 23,7 km/h (4 Bft)
03.10.2011 13:22 19,2 C 78 % 1016,5 hPa 0,0 l/m 22,6 km/h (4 Bft) W 270 0 min 0 W/m 15,3 C 14,7 C 22,6 km/h (4 Bft)
03.10.2011 13:27 19,4 C 78 % 1016,5 hPa 0,0 l/m 21,4 km/h (4 Bft) W 260 0 min 0 W/m 15,5 C 15,2 C 21,4 km/h (4 Bft)
03.10.2011 13:32 19,4 C 77 % 1016,5 hPa 0,0 l/m 20,0 km/h (4 Bft) W 270 0 min 0 W/m 15,3 C 15,4 C 20,0 km/h (4 Bft)
03.10.2011 13:37 19,6 C 77 % 1016,5 hPa 0,0 l/m 17,3 km/h (3 Bft) W 270 0 min 0 W/m 15,5 C 16,2 C 17,3 km/h (3 Bft)
03.10.2011 13:42 20,0 C 76 % 1016,5 hPa 0,0 l/m 23,6 km/h (4 Bft) W 270 0 min 0 W/m 15,6 C 15,6 C 23,6 km/h (4 Bft)
03.10.2011 13:47 20,3 C 74 % 1015,5 hPa 0,0 l/m 23,3 km/h (4 Bft) W 265 0 min 0 W/m 15,5 C 16,0 C 23,3 km/h (4 Bft)
03.10.2011 13:52 20,4 C 74 % 1015,5 hPa 0,0 l/m 23,1 km/h (4 Bft) W 275 0 min 0 W/m 15,6 C 16,2 C 23,1 km/h (4 Bft)
03.10.2011 13:56 20,2 C 74 % 1015,5 hPa 0,0 l/m 22,5 km/h (4 Bft) W 270 0 min 0 W/m 15,4 C 16,0 C 22,5 km/h (4 Bft)
03.10.2011 14:01 20,2 C 74 % 1015,5 hPa 0,0 l/m 23,0 km/h (4 Bft) W 270 0 min 0 W/m 15,4 C 16,0 C 23,0 km/h (4 Bft)
03.10.2011 14:07 20,1 C 74 % 1015,5 hPa 0,0 l/m 28,2 km/h (5 Bft) W 270 0 min 0 W/m 15,3 C 15,1 C 28,2 km/h (5 Bft)
03.10.2011 14:12 20,1 C 74 % 1015,5 hPa 0,0 l/m 20,6 km/h (4 Bft) W 275 0 min 0 W/m 15,3 C 16,2 C 20,6 km/h (4 Bft)
03.10.2011 14:17 20,2 C 75 % 1015,5 hPa 0,0 l/m 16,8 km/h (3 Bft) W 270 0 min 0 W/m 15,6 C 17,1 C 16,8 km/h (3 Bft)
03.10.2011 14:22 20,6 C 74 % 1015,5 hPa 0,0 l/m 22,6 km/h (4 Bft) W 270 0 min 0 W/m 15,8 C 16,6 C 22,6 km/h (4 Bft)
03.10.2011 14:26 20,8 C 73 % 1015,5 hPa 0,0 l/m 23,4 km/h (4 Bft) W 275 0 min 0 W/m 15,8 C 16,7 C 23,4 km/h (4 Bft)
03.10.2011 14:31 21,0 C 72 % 1015,5 hPa 0,0 l/m 21,3 km/h (4 Bft) W 265 0 min 0 W/m 15,8 C 17,3 C 21,3 km/h (4 Bft)
03.10.2011 14:36 21,2 C 71 % 1015,5 hPa 0,0 l/m 26,5 km/h (4 Bft) W 265 0 min 0 W/m 15,7 C 16,8 C 26,5 km/h (4 Bft)
03.10.2011 14:41 21,1 C 70 % 1015,5 hPa 0,0 l/m 28,4 km/h (5 Bft) W 270 0 min 0 W/m 15,4 C 16,4 C 28,4 km/h (5 Bft)
03.10.2011 14:46 20,7 C 71 % 1015,5 hPa 0,0 l/m 20,0 km/h (4 Bft) W 270 0 min 0 W/m 15,2 C 17,1 C 20,0 km/h (4 Bft)
03.10.2011 14:52 20,5 C 72 % 1015,5 hPa 0,0 l/m 22,1 km/h (4 Bft) W 265 0 min 0 W/m 15,3 C 16,5 C 22,1 km/h (4 Bft)
03.10.2011 14:57 20,4 C 72 % 1015,5 hPa 0,0 l/m 22,1 km/h (4 Bft) W 265 0 min 0 W/m 15,2 C 16,4 C 22,1 km/h (4 Bft)
03.10.2011 15:02 20,2 C 73 % 1015,5 hPa 0,0 l/m 22,1 km/h (4 Bft) W 265 0 min 0 W/m 15,2 C 16,1 C 22,1 km/h (4 Bft)
03.10.2011 15:06 20,3 C 74 % 1015,5 hPa 0,0 l/m 20,9 km/h (4 Bft) W 265 0 min 0 W/m 15,5 C 16,4 C 20,9 km/h (4 Bft)
03.10.2011 15:11 20,4 C 74 % 1015,5 hPa 0,0 l/m 17,9 km/h (3 Bft) W 270 0 min 0 W/m 15,6 C 17,1 C 17,9 km/h (3 Bft)
03.10.2011 15:16 20,5 C 73 % 1015,5 hPa 0,0 l/m 17,9 km/h (3 Bft) W 270 0 min 0 W/m 15,5 C 17,2 C 17,9 km/h (3 Bft)
03.10.2011 15:21 20,6 C 72 % 1015,5 hPa 0,0 l/m 19,0 km/h (3 Bft) W 275 0 min 0 W/m 15,4 C 17,2 C 19,0 km/h (3 Bft)
03.10.2011 15:27 20,6 C 72 % 1015,5 hPa 0,0 l/m 21,5 km/h (4 Bft) W 270 0 min 0 W/m 15,4 C 16,7 C 21,5 km/h (4 Bft)
03.10.2011 15:32 20,6 C 72 % 1015,5 hPa 0,0 l/m 19,8 km/h (3 Bft) W 275 0 min 0 W/m 15,4 C 17,0 C 19,8 km/h (3 Bft)
03.10.2011 15:37 20,7 C 70 % 1015,5 hPa 0,0 l/m 20,1 km/h (4 Bft) W 265 0 min 0 W/m 15,0 C 17,1 C 20,1 km/h (4 Bft)
03.10.2011 15:42 20,8 C 70 % 1015,5 hPa 0,0 l/m 22,1 km/h (4 Bft) W 270 0 min 0 W/m 15,1 C 16,9 C 22,1 km/h (4 Bft)
03.10.2011 15:47 20,8 C 70 % 1015,5 hPa 0,0 l/m 16,0 km/h (3 Bft) W 270 0 min 0 W/m 15,1 C 18,0 C 16,0 km/h (3 Bft)
03.10.2011 15:52 20,8 C 70 % 1015,5 hPa 0,0 l/m 24,0 km/h (4 Bft) W 270 0 min 0 W/m 15,1 C 16,6 C 24,0 km/h (4 Bft)
03.10.2011 15:57 20,8 C 70 % 1015,5 hPa 0,0 l/m 16,3 km/h (3 Bft) W 270 0 min 0 W/m 15,1 C 17,9 C 16,3 km/h (3 Bft)
03.10.2011 16:01 20,7 C 70 % 1015,5 hPa 0,0 l/m 16,3 km/h (3 Bft) W 270 0 min 0 W/m 15,0 C 17,8 C 16,3 km/h (3 Bft)
03.10.2011 16:07 20,7 C 71 % 1014,5 hPa 0,0 l/m 21,0 km/h (4 Bft) W 265 0 min 0 W/m 15,2 C 16,9 C 21,0 km/h (4 Bft)
03.10.2011 16:12 20,6 C 71 % 1014,5 hPa 0,0 l/m 22,6 km/h (4 Bft) W 275 0 min 0 W/m 15,2 C 16,6 C 22,6 km/h (4 Bft)
03.10.2011 16:17 20,7 C 71 % 1014,5 hPa 0,0 l/m 14,4 km/h (3 Bft) W 270 0 min 0 W/m 15,2 C 18,2 C 14,4 km/h (3 Bft)
03.10.2011 16:22 20,7 C 71 % 1014,5 hPa 0,0 l/m 14,4 km/h (3 Bft) W 270 0 min 0 W/m 15,2 C 18,2 C 14,4 km/h (3 Bft)
03.10.2011 16:27 20,7 C 71 % 1014,5 hPa 0,0 l/m 14,4 km/h (3 Bft) W 270 0 min 0 W/m 15,2 C 18,2 C 14,4 km/h (3 Bft)
03.10.2011 16:32 20,8 C 72 % 1014,5 hPa 0,0 l/m 15,0 km/h (3 Bft) W 260 0 min 0 W/m 15,6 C 18,2 C 15,0 km/h (3 Bft)
03.10.2011 16:36 20,8 C 72 % 1014,5 hPa 0,0 l/m 15,0 km/h (3 Bft) W 260 0 min 0 W/m 15,6 C 18,2 C 15,0 km/h (3 Bft)
03.10.2011 16:41 20,8 C 72 % 1014,5 hPa 0,0 l/m 15,0 km/h (3 Bft) W 260 0 min 0 W/m 15,6 C 18,2 C 15,0 km/h (3 Bft)
03.10.2011 16:46 21,0 C 71 % 1014,5 hPa 0,0 l/m 15,0 km/h (3 Bft) W 260 0 min 0 W/m 15,5 C 18,5 C 15,0 km/h (3 Bft)
03.10.2011 16:51 21,0 C 71 % 1014,5 hPa 0,0 l/m 15,0 km/h (3 Bft) W 260 0 min 0 W/m 15,5 C 18,5 C 15,0 km/h (3 Bft)
03.10.2011 16:57 21,1 C 70 % 1014,5 hPa 0,0 l/m 15,0 km/h (3 Bft) W 260 0 min 0 W/m 15,4 C 18,6 C 15,0 km/h (3 Bft)
03.10.2011 17:02 21,2 C 70 % 1014,5 hPa 0,0 l/m 15,0 km/h (3 Bft) W 260 0 min 0 W/m 15,5 C 18,7 C 15,0 km/h (3 Bft)
03.10.2011 17:07 21,3 C 70 % 1014,5 hPa 0,0 l/m 15,0 km/h (3 Bft) W 260 0 min 0 W/m 15,6 C 18,8 C 15,0 km/h (3 Bft)
03.10.2011 17:11 21,2 C 70 % 1014,5 hPa 0,0 l/m 15,0 km/h (3 Bft) W 260 0 min 0 W/m 15,5 C 18,7 C 15,0 km/h (3 Bft)
03.10.2011 17:16 21,2 C 70 % 1014,5 hPa 0,0 l/m 15,0 km/h (3 Bft) W 260 0 min 0 W/m 15,5 C 18,7 C 15,0 km/h (3 Bft)
03.10.2011 17:21 21,0 C 70 % 1014,5 hPa 0,0 l/m 15,0 km/h (3 Bft) W 260 0 min 0 W/m 15,3 C 18,5 C 15,0 km/h (3 Bft)
03.10.2011 17:26 21,0 C 71 % 1014,5 hPa 0,0 l/m 15,0 km/h (3 Bft) W 260 0 min 0 W/m 15,5 C 18,5 C 15,0 km/h (3 Bft)
03.10.2011 17:32 20,9 C 71 % 1014,5 hPa 0,0 l/m 15,0 km/h (3 Bft) W 260 0 min 0 W/m 15,4 C 18,3 C 15,0 km/h (3 Bft)
03.10.2011 17:37 20,8 C 71 % 1014,5 hPa 0,0 l/m 15,0 km/h (3 Bft) W 260 0 min 0 W/m 15,3 C 18,2 C 15,0 km/h (3 Bft)
03.10.2011 17:42 20,8 C 71 % 1014,5 hPa 0,0 l/m 15,0 km/h (3 Bft) W 260 0 min 0 W/m 15,3 C 18,2 C 15,0 km/h (3 Bft)
03.10.2011 17:47 20,6 C 71 % 1014,5 hPa 0,0 l/m 15,0 km/h (3 Bft) W 260 0 min 0 W/m 15,2 C 18,0 C 15,0 km/h (3 Bft)
03.10.2011 17:52 20,6 C 71 % 1014,5 hPa 0,0 l/m 15,0 km/h (3 Bft) W 260 0 min 0 W/m 15,2 C 18,0 C 15,0 km/h (3 Bft)
03.10.2011 17:57 20,5 C 72 % 1014,5 hPa 0,0 l/m 15,0 km/h (3 Bft) W 260 0 min 0 W/m 15,3 C 17,9 C 15,0 km/h (3 Bft)
03.10.2011 18:02 20,4 C 72 % 1014,5 hPa 0,0 l/m 15,0 km/h (3 Bft) W 260 0 min 0 W/m 15,2 C 17,7 C 15,0 km/h (3 Bft)
03.10.2011 18:07 20,3 C 71 % 1014,5 hPa 0,0 l/m 15,0 km/h (3 Bft) W 260 0 min 0 W/m 14,9 C 17,6 C 15,0 km/h (3 Bft)
03.10.2011 18:12 20,2 C 71 % 1014,5 hPa 0,0 l/m 15,0 km/h (3 Bft) W 260 0 min 0 W/m 14,8 C 17,5 C 15,0 km/h (3 Bft)
03.10.2011 18:17 20,2 C 72 % 1014,5 hPa 0,0 l/m 15,0 km/h (3 Bft) W 260 0 min 0 W/m 15,0 C 17,5 C 15,0 km/h (3 Bft)
03.10.2011 18:22 20,0 C 72 % 1014,5 hPa 0,0 l/m 15,0 km/h (3 Bft) W 260 0 min 0 W/m 14,8 C 17,2 C 15,0 km/h (3 Bft)
03.10.2011 18:27 19,9 C 73 % 1014,5 hPa 0,0 l/m 15,0 km/h (3 Bft) W 260 0 min 0 W/m 14,9 C 17,1 C 15,0 km/h (3 Bft)
03.10.2011 18:32 19,9 C 73 % 1014,5 hPa 0,0 l/m 15,0 km/h (3 Bft) W 260 0 min 0 W/m 14,9 C 17,1 C 15,0 km/h (3 Bft)
03.10.2011 18:37 19,8 C 73 % 1014,5 hPa 0,0 l/m 15,0 km/h (3 Bft) W 260 0 min 0 W/m 14,8 C 17,0 C 15,0 km/h (3 Bft)
03.10.2011 18:42 19,6 C 74 % 1014,5 hPa 0,0 l/m 15,0 km/h (3 Bft) W 260 0 min 0 W/m 14,8 C 16,8 C 15,0 km/h (3 Bft)
03.10.2011 18:47 19,6 C 74 % 1014,5 hPa 0,0 l/m 15,0 km/h (3 Bft) W 260 0 min 0 W/m 14,8 C 16,8 C 15,0 km/h (3 Bft)
03.10.2011 18:52 19,4 C 75 % 1014,5 hPa 0,0 l/m 15,0 km/h (3 Bft) W 260 0 min 0 W/m 14,8 C 16,5 C 15,0 km/h (3 Bft)
03.10.2011 18:57 19,4 C 75 % 1014,5 hPa 0,0 l/m 15,0 km/h (3 Bft) W 260 0 min 0 W/m 14,8 C 16,5 C 15,0 km/h (3 Bft)
03.10.2011 19:02 19,4 C 75 % 1014,5 hPa 0,0 l/m 15,0 km/h (3 Bft) W 260 0 min 0 W/m 14,8 C 16,5 C 15,0 km/h (3 Bft)
03.10.2011 19:07 19,4 C 75 % 1014,5 hPa 0,0 l/m 15,0 km/h (3 Bft) W 260 0 min 0 W/m 14,8 C 16,5 C 15,0 km/h (3 Bft)
03.10.2011 19:12 19,3 C 76 % 1014,5 hPa 0,0 l/m 15,0 km/h (3 Bft) W 260 0 min 0 W/m 15,0 C 16,4 C 15,0 km/h (3 Bft)
03.10.2011 19:17 19,3 C 76 % 1014,5 hPa 0,0 l/m 15,0 km/h (3 Bft) W 260 0 min 0 W/m 15,0 C 16,4 C 15,0 km/h (3 Bft)
03.10.2011 19:22 19,3 C 76 % 1014,5 hPa 0,0 l/m 15,0 km/h (3 Bft) W 260 0 min 0 W/m 15,0 C 16,4 C 15,0 km/h (3 Bft)
03.10.2011 19:27 19,2 C 76 % 1014,5 hPa 0,0 l/m 15,0 km/h (3 Bft) W 260 0 min 0 W/m 14,9 C 16,3 C 15,0 km/h (3 Bft)
03.10.2011 19:31 19,2 C 76 % 1014,5 hPa 0,0 l/m 15,0 km/h (3 Bft) W 260 0 min 0 W/m 14,9 C 16,3 C 15,0 km/h (3 Bft)
03.10.2011 19:36 19,2 C 76 % 1014,5 hPa 0,0 l/m 15,0 km/h (3 Bft) W 260 0 min 0 W/m 14,9 C 16,3 C 15,0 km/h (3 Bft)
03.10.2011 19:41 19,2 C 76 % 1014,5 hPa 0,0 l/m 15,0 km/h (3 Bft) W 260 0 min 0 W/m 14,9 C 16,3 C 15,0 km/h (3 Bft)
03.10.2011 19:46 19,3 C 76 % 1014,5 hPa 0,0 l/m 15,0 km/h (3 Bft) W 260 0 min 0 W/m 15,0 C 16,4 C 15,0 km/h (3 Bft)
03.10.2011 19:51 19,3 C 76 % 1014,5 hPa 0,0 l/m 15,0 km/h (3 Bft) W 260 0 min 0 W/m 15,0 C 16,4 C 15,0 km/h (3 Bft)
03.10.2011 19:57 19,4 C 76 % 1014,5 hPa 0,0 l/m 15,0 km/h (3 Bft) W 260 0 min 0 W/m 15,1 C 16,5 C 15,0 km/h (3 Bft)
03.10.2011 20:02 19,4 C 76 % 1014,5 hPa 0,0 l/m 15,0 km/h (3 Bft) W 260 0 min 0 W/m 15,1 C 16,5 C 15,0 km/h (3 Bft)
03.10.2011 20:06 19,3 C 76 % 1014,5 hPa 0,0 l/m 15,0 km/h (3 Bft) W 260 0 min 0 W/m 15,0 C 16,4 C 15,0 km/h (3 Bft)
03.10.2011 20:11 19,4 C 76 % 1014,5 hPa 0,0 l/m 15,0 km/h (3 Bft) W 260 0 min 0 W/m 15,1 C 16,5 C 15,0 km/h (3 Bft)
03.10.2011 20:16 19,4 C 76 % 1014,5 hPa 0,0 l/m 15,0 km/h (3 Bft) W 260 0 min 0 W/m 15,1 C 16,5 C 15,0 km/h (3 Bft)
03.10.2011 20:22 19,4 C 76 % 1014,5 hPa 0,0 l/m 15,0 km/h (3 Bft) W 260 0 min 0 W/m 15,1 C 16,5 C 15,0 km/h (3 Bft)
03.10.2011 20:27 19,5 C 76 % 1014,5 hPa 0,0 l/m 15,0 km/h (3 Bft) W 260 0 min 0 W/m 15,2 C 16,6 C 15,0 km/h (3 Bft)
03.10.2011 20:32 19,5 C 75 % 1014,5 hPa 0,0 l/m 15,0 km/h (3 Bft) W 260 0 min 0 W/m 14,9 C 16,6 C 15,0 km/h (3 Bft)
03.10.2011 20:37 19,4 C 76 % 1013,5 hPa 0,0 l/m 15,0 km/h (3 Bft) W 260 0 min 0 W/m 15,1 C 16,5 C 15,0 km/h (3 Bft)
03.10.2011 20:42 19,4 C 76 % 1013,5 hPa 0,0 l/m 15,0 km/h (3 Bft) W 260 0 min 0 W/m 15,1 C 16,5 C 15,0 km/h (3 Bft)
03.10.2011 20:47 19,3 C 76 % 1013,5 hPa 0,0 l/m 15,0 km/h (3 Bft) W 260 0 min 0 W/m 15,0 C 16,4 C 15,0 km/h (3 Bft)
03.10.2011 20:51 19,3 C 76 % 1013,5 hPa 0,0 l/m 15,0 km/h (3 Bft) W 260 0 min 0 W/m 15,0 C 16,4 C 15,0 km/h (3 Bft)
03.10.2011 20:56 19,3 C 76 % 1013,5 hPa 0,0 l/m 15,0 km/h (3 Bft) W 260 0 min 0 W/m 15,0 C 16,4 C 15,0 km/h (3 Bft)
03.10.2011 21:01 19,3 C 75 % 1013,5 hPa 0,0 l/m 15,0 km/h (3 Bft) W 260 0 min 0 W/m 14,8 C 16,4 C 15,0 km/h (3 Bft)
03.10.2011 21:07 19,2 C 75 % 1013,5 hPa 0,0 l/m 15,0 km/h (3 Bft) W 260 0 min 0 W/m 14,7 C 16,3 C 15,0 km/h (3 Bft)
03.10.2011 21:12 19,2 C 75 % 1013,5 hPa 0,0 l/m 15,0 km/h (3 Bft) W 260 0 min 0 W/m 14,7 C 16,3 C 15,0 km/h (3 Bft)
03.10.2011 21:17 19,2 C 75 % 1013,5 hPa 0,0 l/m 15,0 km/h (3 Bft) W 260 0 min 0 W/m 14,7 C 16,3 C 15,0 km/h (3 Bft)
03.10.2011 21:22 19,2 C 75 % 1013,5 hPa 0,0 l/m 15,0 km/h (3 Bft) W 260 0 min 0 W/m 14,7 C 16,3 C 15,0 km/h (3 Bft)
03.10.2011 21:26 19,2 C 75 % 1013,5 hPa 0,0 l/m 15,0 km/h (3 Bft) W 260 0 min 0 W/m 14,7 C 16,3 C 15,0 km/h (3 Bft)
03.10.2011 21:31 19,2 C 76 % 1013,5 hPa 0,0 l/m 15,0 km/h (3 Bft) W 260 0 min 0 W/m 14,9 C 16,3 C 15,0 km/h (3 Bft)
03.10.2011 21:36 19,1 C 76 % 1013,5 hPa 0,0 l/m 15,0 km/h (3 Bft) W 260 0 min 0 W/m 14,8 C 16,2 C 15,0 km/h (3 Bft)
03.10.2011 21:41 19,1 C 76 % 1013,5 hPa 0,0 l/m 15,0 km/h (3 Bft) W 260 0 min 0 W/m 14,8 C 16,2 C 15,0 km/h (3 Bft)
03.10.2011 21:46 19,0 C 76 % 1013,5 hPa 0,0 l/m 15,0 km/h (3 Bft) W 260 0 min 0 W/m 14,7 C 16,0 C 15,0 km/h (3 Bft)
03.10.2011 21:52 19,0 C 77 % 1013,5 hPa 0,0 l/m 15,0 km/h (3 Bft) W 260 0 min 0 W/m 14,9 C 16,0 C 15,0 km/h (3 Bft)
03.10.2011 21:57 18,9 C 77 % 1013,5 hPa 0,0 l/m 15,0 km/h (3 Bft) W 260 0 min 0 W/m 14,8 C 15,9 C 15,0 km/h (3 Bft)
03.10.2011 22:02 18,9 C 77 % 1013,5 hPa 0,0 l/m 15,0 km/h (3 Bft) W 260 0 min 0 W/m 14,8 C 15,9 C 15,0 km/h (3 Bft)
03.10.2011 22:06 18,9 C 77 % 1013,5 hPa 0,0 l/m 15,0 km/h (3 Bft) W 260 0 min 0 W/m 14,8 C 15,9 C 15,0 km/h (3 Bft)
03.10.2011 22:11 18,8 C 77 % 1013,5 hPa 0,0 l/m 15,0 km/h (3 Bft) W 260 0 min 0 W/m 14,7 C 15,8 C 15,0 km/h (3 Bft)
03.10.2011 22:16 18,8 C 77 % 1013,5 hPa 0,0 l/m 15,0 km/h (3 Bft) W 260 0 min 0 W/m 14,7 C 15,8 C 15,0 km/h (3 Bft)
03.10.2011 22:22 18,8 C 77 % 1013,5 hPa 0,0 l/m 15,0 km/h (3 Bft) W 260 0 min 0 W/m 14,7 C 15,8 C 15,0 km/h (3 Bft)
03.10.2011 22:27 18,8 C 77 % 1013,5 hPa 0,0 l/m 15,0 km/h (3 Bft) W 260 0 min 0 W/m 14,7 C 15,8 C 15,0 km/h (3 Bft)
03.10.2011 22:32 18,8 C 77 % 1013,5 hPa 0,0 l/m 15,0 km/h (3 Bft) W 260 0 min 0 W/m 14,7 C 15,8 C 15,0 km/h (3 Bft)
03.10.2011 22:37 18,8 C 77 % 1013,5 hPa 0,0 l/m 15,0 km/h (3 Bft) W 260 0 min 0 W/m 14,7 C 15,8 C 15,0 km/h (3 Bft)
03.10.2011 22:42 18,7 C 76 % 1013,5 hPa 0,0 l/m 15,0 km/h (3 Bft) W 260 0 min 0 W/m 14,4 C 15,7 C 15,0 km/h (3 Bft)
03.10.2011 22:47 18,7 C 76 % 1013,5 hPa 0,0 l/m 15,0 km/h (3 Bft) W 260 0 min 0 W/m 14,4 C 15,7 C 15,0 km/h (3 Bft)
03.10.2011 22:52 18,6 C 76 % 1013,5 hPa 0,0 l/m 27,1 km/h (5 Bft) W 270 0 min 0 W/m 14,3 C 13,2 C 27,1 km/h (5 Bft)
03.10.2011 22:56 18,6 C 75 % 1013,5 hPa 0,0 l/m 27,1 km/h (5 Bft) W 270 0 min 0 W/m 14,1 C 13,2 C 27,1 km/h (5 Bft)
03.10.2011 23:01 18,6 C 75 % 1013,5 hPa 0,0 l/m 27,1 km/h (5 Bft) W 270 0 min 0 W/m 14,1 C 13,2 C 27,1 km/h (5 Bft)
03.10.2011 23:07 18,6 C 74 % 1013,5 hPa 0,0 l/m 27,1 km/h (5 Bft) W 270 0 min 0 W/m 13,9 C 13,2 C 27,1 km/h (5 Bft)
03.10.2011 23:12 18,6 C 74 % 1012,5 hPa 0,0 l/m 27,1 km/h (5 Bft) W 270 0 min 0 W/m 13,9 C 13,2 C 27,1 km/h (5 Bft)
03.10.2011 23:17 18,6 C 74 % 1012,5 hPa 0,0 l/m 27,1 km/h (5 Bft) W 270 0 min 0 W/m 13,9 C 13,2 C 27,1 km/h (5 Bft)
03.10.2011 23:22 18,6 C 73 % 1012,5 hPa 0,0 l/m 27,1 km/h (5 Bft) W 270 0 min 0 W/m 13,7 C 13,2 C 27,1 km/h (5 Bft)
03.10.2011 23:26 18,6 C 73 % 1012,5 hPa 0,0 l/m 27,1 km/h (5 Bft) W 270 0 min 0 W/m 13,7 C 13,2 C 27,1 km/h (5 Bft)
03.10.2011 23:31 18,6 C 72 % 1012,5 hPa 0,0 l/m 32,0 km/h (5 Bft) W 275 0 min 0 W/m 13,4 C 12,5 C 32,0 km/h (5 Bft)
03.10.2011 23:36 18,6 C 72 % 1012,5 hPa 0,0 l/m 32,0 km/h (5 Bft) W 275 0 min 0 W/m 13,4 C 12,5 C 32,0 km/h (5 Bft)
03.10.2011 23:41 18,5 C 72 % 1012,5 hPa 0,0 l/m 32,0 km/h (5 Bft) W 275 0 min 0 W/m 13,4 C 12,4 C 32,0 km/h (5 Bft)
03.10.2011 23:47 18,5 C 72 % 1012,5 hPa 0,0 l/m 32,0 km/h (5 Bft) W 275 0 min 0 W/m 13,4 C 12,4 C 32,0 km/h (5 Bft)
03.10.2011 23:52 18,5 C 72 % 1012,5 hPa 0,0 l/m 32,0 km/h (5 Bft) W 275 0 min 0 W/m 13,4 C 12,4 C 32,0 km/h (5 Bft)
03.10.2011 23:57 18,5 C 73 % 1012,5 hPa 0,0 l/m 32,0 km/h (5 Bft) W 275 0 min 0 W/m 13,6 C 12,4 C 32,0 km/h (5 Bft)
_ Min-Zeit 03:31 14:41 23:12 - 00:06 - - - - 23:41 05:57 00:06
Minimum _ 16,0 C 70 % 1012,5 hPa - 7,6 km/h (2 Bft) - - - - 13,4 C 10,8 C 7,6 km/h (2 Bft)
_ Max-Zeit 17:07 03:22 00:01 00:01 23:31 - - 00:01 00:01 14:22 17:07 23:31
Maximum _ 21,3 C 86 % 1019,5 hPa 0,0 l/m 32,0 km/h
W (5 Bft)
- - 0 min 0 W/m 15,8 C 18,8 C 32,0 km/h
W (5 Bft)
Durchschnitt _ 18,2 C 79 % 1015,9 hPa #0,0 l/m 18,6 km/h (3 Bft) W - #0 min. 0 W/m 14,4 C 14,4 C 18,6 km/h (3 Bft)
copyright by Holger Just